Terminal Aerodrome Forecast
Issued by NWS

Home | Current Version | Previous Version | Text Only | Print | Product List | Glossary On
Versions: 1 2 3 4 5 6 7 8 9 10 11 12 13 14 15 16 17 18 19 20 21 22 23 24 25 26 27 28 29 30 31 32 33 34 35 36 37 38 39 40 41 42 43 44 45 46 47 48 49 50
361
FTAK31 PANC 130611 AAA
TAFASD
TAF AMD
PASD 130611Z 1306/1406 VRB03KT P6SM VCSH SCT015 BKN025
      TEMPO 1306/1310 BKN015 OVC025
     FM131500 05005KT P6SM VCSH OVC015
     FM131800 09005KT 6SM -RA OVC015
     FM140000 07005KT P6SM VCSH SCT015 OVC020
      AMD LTD TO CLD VIS AND WIND=

USA.gov is the U.S. government's official web portal to all federal, state and local government web resources and services.